CDT,Max TemperatureF,Mean TemperatureF,Min TemperatureF,Max Dew PointF,MeanDew PointF,Min DewpointF,Max Humidity, Mean Humidity, Min Humidity, Max Sea Level PressureIn, Mean Sea Level PressureIn, Min Sea Level PressureIn, Max VisibilityMiles, Mean VisibilityMiles, Min VisibilityMiles, Max Wind SpeedMPH, Mean Wind SpeedMPH, Max Gust SpeedMPH,PrecipitationIn, CloudCover, Events, WindDirDegrees
2012-5-1,81,71,60,68,62,57,97,78,58,29.93,29.83,29.75,10,9,1,22,11,29,0.59,5,Rain-Thunderstorm,168
2012-5-2,86,77,67,66,64,62,81,66,51,29.88,29.82,29.75,10,10,10,26,14,35,0.00,0,,181
2012-5-3,83,75,66,70,66,64,93,78,63,29.99,29.90,29.83,10,10,10,22,10,28,0.00,4,,161
2012-5-4,83,75,66,73,67,63,93,79,65,30.01,29.90,29.81,10,8,1,23,9,31,0.25,5,Rain-Thunderstorm,156
2012-5-5,87,78,68,72,70,66,97,77,57,29.90,29.86,29.82,10,8,0,13,6,16,0.00,1,Fog,155
2012-5-6,89,77,65,73,67,59,90,71,51,29.91,29.85,29.79,10,9,2,25,7,33,0.30,1,Rain-Thunderstorm,144
2012-5-7,72,64,56,63,60,51,93,78,63,29.99,29.91,29.79,10,10,8,23,9,31,0.02,6,Rain-Thunderstorm,326
2012-5-8,74,65,55,52,46,39,86,59,31,30.03,29.99,29.95,10,10,10,18,7,24,0.00,2,,310
2012-5-9,69,59,48,47,45,43,80,60,40,30.05,30.00,29.96,10,10,10,17,8,21,0.00,1,,307
2012-5-10,74,62,49,49,47,44,86,62,38,30.02,29.97,29.93,10,10,10,10,4,14,0.00,0,,153
2012-5-11,75,64,53,56,52,48,83,65,46,30.13,30.07,29.98,10,10,10,16,7,20,0.00,0,,149
2012-5-12,76,67,58,57,55,54,84,65,46,30.20,30.17,30.14,10,10,10,18,6,23,0.00,1,,31
2012-5-13,75,65,54,56,53,47,93,66,38,30.22,30.17,30.12,10,8,2,15,8,21,0.00,2,,12
2012-5-14,78,66,53,50,44,38,83,54,24,30.16,30.10,30.05,10,10,9,12,4,18,0.00,0,,346
2012-5-15,81,67,52,55,50,45,72,54,35,30.08,30.02,29.96,10,10,10,14,7,17,0.00,0,,223
2012-5-16,80,68,56,52,47,41,80,54,28,30.07,30.02,29.97,10,10,10,15,7,18,0.00,0,,16
2012-5-17,79,66,52,48,45,39,68,50,31,30.09,30.03,29.96,10,10,10,13,7,18,0.00,0,,114
2012-5-18,86,71,56,60,53,45,67,54,40,29.99,29.93,29.86,10,10,10,13,8,17,0.00,0,,144
2012-5-19,87,76,64,62,59,54,73,58,42,29.99,29.94,29.90,10,10,10,21,10,25,0.00,0,,164
2012-5-20,84,73,61,64,60,55,78,65,51,30.12,30.04,29.96,10,10,10,18,9,24,0.00,1,,230
2012-5-21,75,64,53,54,43,36,78,52,25,30.22,30.16,30.11,10,10,10,20,10,25,0.00,1,,360
2012-5-22,77,63,49,49,45,40,83,57,31,30.10,30.01,29.87,10,10,10,12,4,15,0.00,0,,107
2012-5-23,86,72,57,52,50,48,72,51,30,29.86,29.75,29.62,10,10,10,21,12,25,0.00,0,,147
2012-5-24,91,79,67,67,57,46,84,60,35,29.74,29.60,29.54,10,10,10,28,13,32,0.00,2,,179
2012-5-25,91,81,70,70,66,61,84,67,49,29.97,29.88,29.75,10,10,10,15,8,21,T,2,,110
2012-5-26,92,81,70,72,69,65,84,66,47,30.02,29.96,29.91,10,10,10,16,9,21,0.00,0,,164
2012-5-27,92,79,66,65,61,58,81,57,32,29.97,29.89,29.79,10,10,10,21,11,28,0.01,0,,182
2012-5-28,91,82,72,68,64,59,69,57,44,29.82,29.79,29.76,10,10,10,28,13,33,T,1,Thunderstorm,200
2012-5-29,89,77,64,62,54,48,78,52,26,29.92,29.88,29.81,10,10,10,20,6,24,T,1,,14
2012-5-30,82,70,58,55,53,46,86,61,36,30.00,29.91,29.82,10,10,5,17,7,22,0.15,2,Rain-Thunderstorm,74
2012-5-31,70,62,53,58,51,48,83,68,53,29.95,29.84,29.73,10,10,10,21,11,25,T,7,,353